map of HDM home
HDM - Airport
Location
City:  Hamadan, Hamadan, Iran
ICAO:OIHH
IATA:HDM

Details
Type:Airport (Aerodrome, Airfield)
Latitude:3452'09"N (34.869167)
Longitude:4833'09"E (48.552500)
Datum:WGS 1984
Elevation:5755 ft (1754 m)
Variation:4.78E (WMM2015v2 magnetic declination)
0.06 annual change
Runways:1
Longest:10611 × 148 ft (3234 × 45 m), paved

Time
Time Zone:UTC+3:30 (DST+4:30)
Local Time:

Weather
METAR:OIHH 041352Z 29006KT 9999 SCT040 00/M06 Q1025

Related Locations
Nearby:
Farthest:GMR: 11593 mi / 18657 km
Mangareva [Totegegie], Gambier Islands, PF

Find:

   beyond  
but within

Other Information
Maps:
NOTAMs:
Links:
Sources:

  
  • flag of Iran
  

Sectional Chart

Flight Planning
at skyvector.com

Satellite Image

Google Maps Satellite view

 

Copyright © 2004-2019 Karl L. Swartz. All rights reserved.
The Great Circle Mapper name and logo are trademarks of the Great Circle Mapper.
All other trademarks mentioned herein belong to their respective owners.
Please see credits for attibutions and further copyright information.

  Follow gcmap on Facebook Follow gcmap on Twitter GCmap on LinkedIn

hCard Microformat

Geo Microformat